| time (UTC) | temp C | wind direction | speed KPH | gust KPH | rain 1hr cm | rain 24hr cm | rain mn cm | humidity % | barometer mb |
| 20260507033037 | 16 | 282 | 6.4 | 9.7 | 0.00 | 0.00 | 0.00 | 79 | 1012.1 |
| 20260507031854 | 16 | 278 | 6.4 | 9.7 | 0.00 | 0.00 | 0.00 | 78 | 1012.0 |
| 20260507030631 | 16 | 272 | 4.8 | 8.0 | 0.00 | 0.00 | 0.00 | 77 | 1011.9 |
| 20260507025448 | 16 | 280 | 4.8 | 11.3 | 0.00 | 0.00 | 0.00 | 78 | 1011.9 |
| 20260507024244 | 16 | 301 | 6.4 | 9.7 | 0.00 | 0.00 | 0.00 | 77 | 1011.8 |
| 20260507023032 | 16 | 264 | 6.4 | 9.7 | 0.00 | 0.00 | 0.00 | 76 | 1011.8 |
| 20260507021838 | 16 | 285 | 4.8 | 12.9 | 0.00 | 0.00 | 0.00 | 76 | 1011.5 |
| 20260507020635 | 16 | 280 | 8.0 | 12.9 | 0.00 | 0.00 | 0.00 | 76 | 1011.7 |
| 20260507015442 | 16 | 258 | 8.0 | 11.3 | 0.00 | 0.00 | 0.00 | 76 | 1011.5 |
| 20260507014229 | 16 | 258 | 8.0 | 9.7 | 0.00 | 0.00 | 0.00 | 76 | 1011.3 |
| 20260507013036 | 16 | 270 | 8.0 | 19.3 | 0.00 | 0.00 | 0.00 | 75 | 1011.3 |
| 20260507011823 | 16 | 249 | 8.0 | 19.3 | 0.00 | 0.00 | 0.00 | 74 | 1011.2 |
| 20260507010630 | 16 | 265 | 9.7 | 12.9 | 0.00 | 0.00 | 0.00 | 75 | 1011.0 |
| 20260507005437 | 16 | 271 | 9.7 | 14.5 | 0.00 | 0.00 | 0.00 | 73 | 1010.7 |
| 20260507004235 | 17 | 259 | 6.4 | 9.7 | 0.00 | 0.00 | 0.00 | 72 | 1010.5 |
| 20260507003032 | 17 | 253 | 4.8 | 6.4 | 0.00 | 0.00 | 0.00 | 73 | 1010.4 |
| 20260507001854 | 17 | 293 | 6.4 | 11.3 | 0.00 | 0.00 | 0.00 | 73 | 1010.3 |
| 20260507000645 | 17 | 272 | 6.4 | 9.7 | 0.00 | 0.00 | 0.00 | 74 | 1010.3 |
| 20260506235432 | 17 | 280 | 11.3 | 17.7 | 0.00 | 0.00 | 0.00 | 74 | 1010.3 |
| 20260506234249 | 17 | 278 | 8.0 | 12.9 | 0.00 | 0.00 | 0.00 | 72 | 1010.1 |
| 20260506233026 | 17 | 289 | 6.4 | 11.3 | 0.00 | 0.00 | 0.00 | 70 | 1009.8 |
| 20260506231844 | 17 | 274 | 6.4 | 9.7 | 0.00 | 0.00 | 0.00 | 67 | 1009.7 |
| 20260506230651 | 17 | 266 | 6.4 | 9.7 | 0.00 | 0.00 | 0.00 | 65 | 1009.4 |
| 20260506225438 | 18 | 268 | 4.8 | 9.7 | 0.00 | 0.00 | 0.00 | 64 | 1009.2 |
| 20260506224245 | 18 | 266 | 8.0 | 11.3 | 0.00 | 0.00 | 0.00 | 62 | 1009.1 |
| 20260506223052 | 18 | 260 | 6.4 | 8.0 | 0.00 | 0.00 | 0.00 | 60 | 1009.0 |
| 20260506221819 | 18 | 266 | 4.8 | 8.0 | 0.00 | 0.00 | 0.00 | 58 | 1008.7 |
| 20260506220627 | 18 | 287 | 1.6 | 3.2 | 0.00 | 0.00 | 0.00 | 59 | 1008.4 |
| 20260506215454 | 18 | 208 | 8.0 | 11.3 | 0.00 | 0.00 | 0.00 | 60 | 1008.2 |
| 20260506214341 | 18 | 248 | 6.4 | 16.1 | 0.00 | 0.00 | 0.00 | 61 | 1007.6 |
| 20260506213029 | 18 | 203 | 8.0 | 12.9 | 0.00 | 0.00 | 0.00 | 60 | 1007.3 |
| 20260506211847 | 18 | 190 | 8.0 | 11.3 | 0.00 | 0.00 | 0.00 | 59 | 1007.2 |
| 20260506210634 | 18 | 207 | 3.2 | 6.4 | 0.00 | 0.00 | 0.00 | 59 | 1007.2 |
| 20260506205441 | 18 | 156 | 6.4 | 11.3 | 0.00 | 0.00 | 0.00 | 58 | 1007.1 |
| 20260506204249 | 19 | 208 | 6.4 | 11.3 | 0.00 | 0.00 | 0.00 | 57 | 1007.1 |
| 20260506203037 | 19 | 212 | 4.8 | 8.0 | 0.00 | 0.00 | 0.00 | 57 | 1007.0 |
| 20260506201905 | 19 | 329 | 8.0 | 16.1 | 0.00 | 0.00 | 0.00 | 56 | 1006.8 |
| 20260506200702 | 19 | 214 | 6.4 | 11.3 | 0.00 | 0.00 | 0.00 | 56 | 1006.8 |
| 20260506195440 | 20 | 169 | 4.8 | 8.0 | 0.00 | 0.00 | 0.00 | 56 | 1006.8 |
| 20260506194228 | 20 | 185 | 4.8 | 9.7 | 0.00 | 0.00 | 0.00 | 56 | 1006.4 |
| 20260506193055 | 20 | 116 | 3.2 | 6.4 | 0.00 | 0.00 | 0.00 | 56 | 1006.4 |
| 20260506191853 | 20 | 155 | 4.8 | 8.0 | 0.00 | 0.00 | 0.00 | 56 | 1006.4 |
| 20260506190640 | 20 | 162 | 6.4 | 8.0 | 0.00 | 0.00 | 0.00 | 55 | 1006.4 |
| 20260506185427 | 20 | 188 | 4.8 | 9.7 | 0.00 | 0.00 | 0.00 | 55 | 1006.3 |
| 20260506184235 | 21 | 204 | 4.8 | 8.0 | 0.00 | 0.00 | 0.00 | 54 | 1006.3 |
| 20260506183042 | 21 | 295 | 4.8 | 9.7 | 0.00 | 0.00 | 0.00 | 53 | 1006.1 |
| 20260506181830 | 21 | 94 | 6.4 | 11.3 | 0.00 | 0.00 | 0.00 | 52 | 1005.7 |
| 20260506180627 | 21 | 67 | 6.4 | 9.7 | 0.00 | 0.00 | 0.00 | 51 | 1005.7 |
| 20260506175443 | 22 | 112 | 6.4 | 12.9 | 0.00 | 0.00 | 0.00 | 50 | 1005.6 |
| 20260506174251 | 22 | 198 | 8.0 | 14.5 | 0.00 | 0.00 | 0.00 | 49 | 1005.7 |
| 20260506173038 | 22 | 209 | 6.4 | 9.7 | 0.00 | 0.00 | 0.00 | 49 | 1005.6 |
| 20260506171855 | 23 | 141 | 6.4 | 14.5 | 0.00 | 0.00 | 0.00 | 48 | 1005.6 |
| 20260506170642 | 23 | 120 | 8.0 | 12.9 | 0.00 | 0.00 | 0.00 | 47 | 1005.7 |
| 20260506165427 | 23 | 73 | 6.4 | 11.3 | 0.00 | 0.00 | 0.00 | 46 | 1005.7 |
| 20260506164233 | 23 | 177 | 8.0 | 14.5 | 0.00 | 0.00 | 0.00 | 46 | 1005.8 |
| 20260506163030 | 23 | 208 | 8.0 | 12.9 | 0.00 | 0.00 | 0.00 | 46 | 1005.8 |
| 20260506161855 | 24 | 197 | 9.7 | 12.9 | 0.00 | 0.00 | 0.00 | 44 | 1006.0 |
| 20260506160646 | 24 | 178 | 11.3 | 16.1 | 0.00 | 0.00 | 0.00 | 43 | 1006.2 |
| 20260506155423 | 25 | 140 | 11.3 | 16.1 | 0.00 | 0.00 | 0.00 | 43 | 1006.3 |
| 20260506154251 | 25 | 47 | 8.0 | 11.3 | 0.00 | 0.00 | 0.00 | 44 | 1006.4 |
| 20260506153038 | 25 | 142 | 11.3 | 16.1 | 0.00 | 0.00 | 0.00 | 44 | 1006.7 |
| 20260506151825 | 25 | 79 | 8.0 | 9.7 | 0.00 | 0.00 | 0.00 | 43 | 1006.6 |
| 20260506150652 | 25 | 72 | 6.4 | 12.9 | 0.00 | 0.00 | 0.00 | 42 | 1006.7 |
| 20260506145439 | 25 | 120 | 9.7 | 14.5 | 0.00 | 0.00 | 0.00 | 42 | 1007.0 |
| 20260506144227 | 25 | 80 | 11.3 | 17.7 | 0.00 | 0.00 | 0.00 | 40 | 1007.0 |
| 20260506143034 | 25 | 230 | 9.7 | 14.5 | 0.00 | 0.00 | 0.00 | 40 | 1007.3 |
| 20260506141821 | 25 | 117 | 8.0 | 11.3 | 0.00 | 0.00 | 0.00 | 40 | 1007.3 |
| 20260506140629 | 26 | 38 | 9.7 | 11.3 | 0.00 | 0.00 | 0.00 | 40 | 1007.4 |
| 20260506135436 | 26 | 76 | 8.0 | 11.3 | 0.00 | 0.00 | 0.00 | 40 | 1007.6 |
| 20260506134303 | 26 | 152 | 9.7 | 14.5 | 0.00 | 0.00 | 0.00 | 41 | 1007.8 |
| 20260506133031 | 25 | 60 | 8.0 | 11.3 | 0.00 | 0.00 | 0.00 | 42 | 1008.0 |
| 20260506131858 | 25 | 71 | 8.0 | 14.5 | 0.00 | 0.00 | 0.00 | 42 | 1008.0 |
| 20260506130625 | 25 | 186 | 6.4 | 9.7 | 0.00 | 0.00 | 0.00 | 42 | 1008.3 |
| 20260506125433 | 25 | 86 | 8.0 | 14.5 | 0.00 | 0.00 | 0.00 | 42 | 1008.5 |
| 20260506124250 | 25 | 91 | 8.0 | 11.3 | 0.00 | 0.00 | 0.00 | 43 | 1008.6 |
| 20260506123027 | 25 | 136 | 8.0 | 12.9 | 0.00 | 0.00 | 0.00 | 44 | 1008.8 |
| 20260506121835 | 25 | 78 | 8.0 | 11.3 | 0.00 | 0.00 | 0.00 | 44 | 1008.9 |
| 20260506120642 | 25 | 101 | 11.3 | 20.9 | 0.00 | 0.00 | 0.00 | 42 | 1009.1 |
| 20260506115429 | 26 | 112 | 8.0 | 14.5 | 0.00 | 0.00 | 0.00 | 41 | 1009.2 |
| 20260506114237 | 25 | 246 | 6.4 | 9.7 | 0.00 | 0.00 | 0.00 | 41 | 1009.2 |
| 20260506113104 | 25 | 106 | 6.4 | 12.9 | 0.00 | 0.00 | 0.00 | 41 | 1009.1 |
| 20260506111842 | 26 | 175 | 6.4 | 9.7 | 0.00 | 0.00 | 0.00 | 39 | 1009.4 |
| 20260506110629 | 26 | 185 | 6.4 | 12.9 | 0.00 | 0.00 | 0.00 | 36 | 1009.5 |
| 20260506105427 | 27 | 114 | 8.0 | 11.3 | 0.00 | 0.00 | 0.00 | 35 | 1009.6 |
| 20260506104304 | 27 | 50 | 4.8 | 6.4 | 0.00 | 0.00 | 0.00 | 36 | 1009.6 |
| 20260506103051 | 26 | 168 | 3.2 | 6.4 | 0.00 | 0.00 | 0.00 | 36 | 1009.7 |
| 20260506101849 | 26 | 188 | 6.4 | 11.3 | 0.00 | 0.00 | 0.00 | 36 | 1010.0 |
| 20260506100626 | 26 | 204 | 4.8 | 9.7 | 0.00 | 0.00 | 0.00 | 36 | 1010.3 |
| 20260506095443 | 26 | 182 | 3.2 | 4.8 | 0.00 | 0.00 | 0.00 | 35 | 1010.2 |
| 20260506094231 | 26 | 201 | 6.4 | 9.7 | 0.00 | 0.00 | 0.00 | 35 | 1010.5 |
| 20260506093037 | 26 | 177 | 4.8 | 9.7 | 0.00 | 0.00 | 0.00 | 35 | 1010.4 |
| 20260506091834 | 26 | 65 | 3.2 | 4.8 | 0.00 | 0.00 | 0.00 | 35 | 1010.4 |
| 20260506090641 | 26 | 183 | 8.0 | 14.5 | 0.00 | 0.00 | 0.00 | 35 | 1010.5 |
| 20260506085428 | 26 | 220 | 4.8 | 6.4 | 0.00 | 0.00 | 0.00 | 36 | 1010.5 |
| 20260506084235 | 27 | 261 | 4.8 | 11.3 | 0.00 | 0.00 | 0.00 | 36 | 1010.7 |
| 20260506083051 | 26 | 188 | 4.8 | 9.7 | 0.00 | 0.00 | 0.00 | 38 | 1010.6 |
| 20260506081838 | 26 | 202 | 3.2 | 6.4 | 0.00 | 0.00 | 0.00 | 38 | 1010.9 |
| 20260506080625 | 26 | 222 | 4.8 | 8.0 | 0.00 | 0.00 | 0.00 | 40 | 1010.9 |
| 20260506073031 | 27 | 210 | 4.8 | 9.7 | 0.00 | 0.00 | 0.00 | 41 | 1011.1 |
| 20260506071857 | 26 | 266 | 4.8 | 9.7 | 0.00 | 0.00 | 0.00 | 42 | 1011.1 |
| 20260506070643 | 26 | 213 | 4.8 | 6.4 | 0.00 | 0.00 | 0.00 | 44 | 1011.1 |
| 20260506061833 | 21 | 185 | 4.8 | 6.4 | 0.00 | 0.00 | 0.00 | 60 | 1011.3 |
| 20260506060638 | 18 | 236 | 4.8 | 8.0 | 0.00 | 0.00 | 0.00 | 72 | 1011.4 |
| 20260506050624 | 16 | 0.0 | 0.0 | 0.00 | 0.00 | 0.00 | 80 | 1011.0 | |
| 20260506044243 | 15 | 0.0 | 0.0 | 0.00 | 0.00 | 0.00 | 77 | 1010.8 | |
| 20260506043040 | 15 | 0.0 | 0.0 | 0.00 | 0.00 | 0.00 | 75 | 1010.6 | |
| 20260506041827 | 15 | 0.0 | 0.0 | 0.00 | 0.00 | 0.00 | 74 | 1010.4 | |
| 20260506040624 | 16 | 0.0 | 0.0 | 0.00 | 0.00 | 0.00 | 73 | 1010.3 | |
| 20260506035442 | 16 | 294 | 1.6 | 3.2 | 0.00 | 0.00 | 0.00 | 71 | 1010.3 |
| 20260506034228 | 16 | 315 | 0.0 | 0.0 | 0.00 | 0.00 | 0.00 | 70 | 1010.3 |